Weather History for KCXY - January, 2014

Change the Weather History Date:

Tuesday, January 7, 2014

  Actual Average Record
Temperature  
Mean Temperature 4 °F -  
Max Temperature 9 °F 37 °F 64 °F (1998)
Min Temperature 0 °F 24 °F 0 °F (2014)
Degree Days  
Heating Degree Days 60    
Moisture  
Dew Point -12 °F    
Average Humidity 46    
Maximum Humidity 55    
Minimum Humidity 42    
Precipitation  
Precipitation 0.00 in - - ()
Sea Level Pressure  
Sea Level Pressure 30.31 in    
Wind  
Wind Speed 14 mph (West)    
Max Wind Speed 20 mph    
Max Gust Speed 32 mph    
Visibility 10 miles    
Events      
Averages and records for this station are not official NWS values.
T = Trace of Precipitation, MM = Missing Value Source: NWS Daily Summary

Daily Weather History Graph

Daily Weather History Graph

Search for Another Location

Airport or City:

Trip Planner

Search our weather history database for the weather conditions in past years. The results will help you decide how hot, cold, wet, or windy it might be!

Date:

Astronomy

Jan. 07, 2014 Rise Set
Actual Time 7:30 AM EST 4:57 PM EST
Civil Twilight 6:59 AM EST 5:28 PM EST
Nautical Twilight 6:25 AM EST 6:01 PM EST
Astronomical Twilight 5:53 AM EST 6:34 PM EST
Moon 11:16 AM EST (1/7) No Moon Set
Length of Visible Light 10h 28m
Length of Day
9h 27m
Waxing Crescent, 45% of the Moon is Illuminated
Jan 7
Waxing Crescent
Jan 7
First Quarter
Jan 15
Full
Jan 24
Last Quarter
Jan 30
New

Hourly Weather History & Observations

Time (EST) Temp. Windchill Dew Point Humidity Pressure Visibility Wind Dir Wind Speed Gust Speed Precip Events Conditions
12:56 AM 3.0 °F -17.3 °F -14.1 °F 45% 30.07 in 10.0 mi WNW 18.4 mph 32.2 mph N/A   Clear
1:56 AM 1.9 °F -19.2 °F -15.0 °F 45% 30.11 in 10.0 mi West 19.6 mph 31.1 mph N/A   Clear
2:56 AM 1.0 °F -18.7 °F -16.1 °F 45% 30.14 in 10.0 mi WNW 16.1 mph 25.3 mph N/A   Clear
3:56 AM 1.0 °F -18.7 °F -17.0 °F 43% 30.17 in 10.0 mi WNW 16.1 mph 27.6 mph N/A   Clear
4:56 AM -0.0 °F -18.7 °F -17.0 °F 45% 30.20 in 10.0 mi WNW 13.8 mph 21.9 mph N/A   Scattered Clouds
5:56 AM -0.0 °F -18.7 °F -18.0 °F 43% 30.24 in 10.0 mi WNW 13.8 mph 20.7 mph N/A   Partly Cloudy
6:56 AM -0.9 °F -17.4 °F -16.1 °F 49% 30.27 in 10.0 mi West 10.4 mph 19.6 mph N/A   Scattered Clouds
7:56 AM -0.9 °F -19.9 °F -16.1 °F 49% 30.30 in 10.0 mi West 13.8 mph 19.6 mph N/A   Clear
8:56 AM -0.0 °F -21.8 °F -16.1 °F 47% 30.33 in 10.0 mi WNW 19.6 mph 28.8 mph N/A   Scattered Clouds
9:56 AM 1.9 °F -18.7 °F -14.1 °F 47% 30.36 in 10.0 mi West 18.4 mph 24.2 mph N/A   Overcast
10:56 AM 3.0 °F -14.8 °F -11.9 °F 50% 30.35 in 10.0 mi West 13.8 mph 25.3 mph N/A   Scattered Clouds
11:56 AM 5.0 °F -13.0 °F -13.0 °F 43% 30.32 in 10.0 mi West 15.0 mph 24.2 mph N/A   Scattered Clouds
12:56 PM 6.1 °F -10.9 °F -11.0 °F 45% 30.30 in 10.0 mi West 13.8 mph 21.9 mph N/A   Scattered Clouds
1:56 PM 8.1 °F -9.6 °F -9.9 °F 44% 30.31 in 10.0 mi West 16.1 mph 25.3 mph N/A   Scattered Clouds
2:56 PM 9.0 °F -8.5 °F -9.9 °F 42% 30.32 in 10.0 mi West 16.1 mph 20.7 mph N/A   Partly Cloudy
3:56 PM 9.0 °F -5.9 °F -9.9 °F 42% 30.34 in 10.0 mi West 11.5 mph 20.7 mph N/A   Partly Cloudy
4:56 PM 9.0 °F -4.2 °F -9.0 °F 44% 30.35 in 10.0 mi West 9.2 mph - N/A   Clear
5:56 PM 9.0 °F -5.1 °F -9.0 °F 44% 30.35 in 10.0 mi West 10.4 mph - N/A   Clear
6:56 PM 9.0 °F -2.2 °F -8.0 °F 46% 30.38 in 10.0 mi West 6.9 mph - N/A   Clear
7:56 PM 8.1 °F -3.2 °F -8.0 °F 48% 30.40 in 10.0 mi West 6.9 mph - N/A   Clear
8:56 PM 8.1 °F -2.0 °F -8.0 °F 48% 30.41 in 10.0 mi West 5.8 mph - N/A   Clear
9:56 PM 8.1 °F 1.4 °F -7.1 °F 50% 30.43 in 10.0 mi West 3.5 mph - N/A   Clear
10:56 PM 8.1 °F -3.2 °F -6.0 °F 53% 30.45 in 10.0 mi West 6.9 mph - N/A   Clear
11:56 PM 7.0 °F - -6.0 °F 55% 30.45 in 10.0 mi Calm Calm - N/A   Clear